Wind_Speed
28 28 29 29 29 29 30 31 33 32 32 32 35 37 38 38 38 39 40 40 41 41 42 43 44 46 48 49 51 54 56 58 61 63 66 69 71 74 77 79 81 83 85 87
30 30 31 31 30 30 31 32 34 35 34 34 37 38 39 39 39 40 40 41 42 43 44 45 47 48 50 52 54 57 59 61 64 67 69 72 74 77 79 81 83 86 87 88
33 32 35 34 30 31 33 33 35 36 36 37 38 39 39 40 41 41 42 43 44 44 46 47 48 50 52 55 57 59 62 64 67 70 72 75 77 79 82 84 86 87 87 87
36 35 37 35 33 33 35 35 36 38 38 39 40 40 41 41 42 42 43 44 45 46 47 49 51 53 55 57 59 62 64 67 70 72 75 77 80 82 84 86 87 87 85 82
38 39 39 36 35 36 37 37 37 39 39 40 41 42 42 42 43 43 44 45 46 47 49 51 53 55 57 59 62 65 67 70 72 75 77 80 82 84 86 87 86 84 80 76
40 41 42 39 38 38 40 39 38 39 40 41 42 42 42 43 43 43 44 45 46 48 50 52 55 57 59 62 65 67 69 72 74 77 80 82 84 86 86 86 83 79 73 68
40 42 43 42 41 40 41 41 40 40 41 41 41 41 42 42 43 44 45 46 48 50 52 55 57 59 62 64 67 69 72 74 76 79 82 84 85 85 84 81 77 72 67 62
41 43 44 43 42 42 42 42 42 42 41 41 41 42 43 43 44 44 46 48 50 52 54 57 59 62 64 67 69 71 74 76 78 81 83 84 84 82 79 75 70 65 60 56
42 43 43 43 44 43 43 43 43 43 42 42 43 43 43 43 44 45 47 50 52 54 56 59 62 64 66 69 71 73 75 78 80 82 83 82 81 77 72 68 64 60 56 53
42 42 43 44 44 44 44 44 43 43 43 43 43 43 43 44 46 47 49 51 54 56 58 61 63 66 69 71 73 75 77 80 82 82 81 78 75 71 67 63 60 56 54 51
42 42 43 44 44 44 44 44 44 44 44 43 43 44 45 46 48 49 51 54 56 58 61 63 65 68 70 73 75 77 80 81 81 80 78 74 70 66 62 59 57 54 51 49
41 42 43 43 43 44 44 44 44 44 43 43 44 45 46 47 49 51 54 56 58 61 63 65 67 70 72 75 77 80 81 80 79 77 74 69 65 60 57 55 53 51 49 47
42 42 43 43 43 44 44 44 43 43 43 44 45 46 47 49 51 53 56 59 61 62 64 67 69 71 74 77 79 80 80 79 77 73 69 64 60 56 52 49 48 47 46 45
42 42 43 43 44 43 43 43 43 44 44 45 46 47 48 50 53 56 58 60 62 64 66 68 71 74 76 78 79 79 78 75 72 68 64 60 56 53 49 47 44 42 42 43
43 43 43 43 43 43 43 43 43 43 44 45 47 48 51 53 55 57 59 61 63 65 68 71 73 75 77 78 78 76 74 71 67 63 59 55 52 49 47 45 43 41 40 39
42 42 42 42 41 42 42 42 42 43 45 46 48 51 53 55 57 58 61 63 65 67 70 73 75 76 77 77 76 73 69 66 62 58 54 51 49 47 45 43 42 41 39 38
39 39 40 40 40 40 41 42 43 44 46 48 50 52 54 56 58 60 62 65 67 70 73 75 76 76 76 75 72 69 65 60 57 54 51 49 47 45 43 42 41 40 38 37
36 37 37 38 39 40 41 42 44 46 48 50 51 53 55 58 60 62 64 66 69 71 73 75 75 75 73 71 68 65 60 56 53 50 48 46 44 43 42 41 40 39 37 36
35 36 37 38 39 41 42 44 46 47 50 51 53 55 57 60 62 64 66 69 71 72 73 74 74 72 69 67 64 60 55 52 50 48 46 44 42 41 41 39 38 37 35 34
36 37 38 39 41 42 43 45 47 49 51 53 55 57 59 61 64 66 68 70 72 74 74 73 71 69 66 63 59 55 52 50 48 46 44 42 40 39 38 37 36 34 33 32
37 38 39 40 42 43 45 47 49 50 53 55 57 59 61 64 67 69 71 71 72 73 72 70 68 65 63 59 55 52 49 47 45 43 41 39 38 37 36 34 33 33 32 31
37 39 40 41 43 45 47 48 50 53 55 57 60 63 65 67 69 70 71 72 72 71 69 66 63 61 58 55 51 49 47 45 43 40 38 37 36 35 33 32 31 31 30 29
38 40 41 43 44 46 49 51 53 56 58 61 63 66 68 69 71 71 71 70 70 68 65 61 59 57 55 51 48 46 44 42 40 38 36 35 34 32 30 29 29 29 28 28
40 42 43 45 47 49 52 54 57 59 62 64 66 68 70 70 70 71 70 68 66 63 61 58 56 54 51 47 45 43 41 39 37 35 33 32 31 30 29 28 28 28 28 28
42 44 47 49 51 53 56 58 60 62 65 66 68 69 70 71 70 69 67 65 62 60 58 55 53 50 47 44 42 40 38 36 34 32 31 30 29 28 28 27 27 26 27 27
46 48 51 53 55 57 59 62 64 66 67 68 68 68 69 69 68 66 64 62 60 57 55 51 48 45 43 41 39 37 35 33 31 30 29 28 28 27 26 26 25 26 26 26
51 53 55 57 59 61 63 65 66 67 68 68 67 67 66 65 64 63 60 58 56 53 50 47 44 42 40 38 36 34 32 31 29 28 27 27 26 25 25 25 24 25 25 25
Wind_Direction
256 260 263 265 268 272 276 280 282 283 283 285 286 288 291 292 292 292 292 292 292 292 292 293 294 294 295 297 298 300 301 302 303 304 305 305 306 306 307 307 307 307 307 307
258 261 264 266 270 274 277 279 282 283 284 284 286 288 290 291 292 292 292 292 292 292 293 293 294 295 296 298 299 301 302 303 304 305 305 306 307 307 308 308 309 309 308 308
260 262 265 268 272 274 277 279 281 284 285 286 286 287 289 290 290 291 291 291 291 292 293 293 295 296 297 299 300 302 303 304 305 306 307 307 308 308 309 309 310 310 309 309
262 264 266 271 272 274 277 279 282 284 286 287 288 288 289 289 289 290 290 290 290 291 293 294 295 297 298 300 301 303 304 305 306 307 308 308 309 309 310 310 311 311 310 310
264 266 268 270 274 277 278 280 283 285 287 288 289 289 289 289 289 289 289 290 291 292 293 295 296 298 300 301 303 304 306 307 307 308 309 309 310 310 311 311 312 312 311 310
265 269 272 274 276 278 280 283 284 286 287 288 289 290 289 289 288 288 289 290 291 293 294 296 298 299 301 303 304 306 307 308 308 309 310 310 311 312 312 312 313 312 311 310
266 271 274 278 281 282 284 286 287 288 289 290 290 290 289 288 288 288 290 291 292 294 296 297 299 301 303 304 305 307 308 308 309 310 311 312 312 313 313 313 313 312 311 310
267 271 277 280 282 283 285 286 288 289 290 290 289 289 288 288 289 289 290 292 294 296 298 299 301 302 304 305 306 307 309 310 310 311 312 313 314 314 313 313 312 311 310 309
269 272 276 278 281 283 285 287 288 289 289 290 290 289 289 289 289 290 291 293 295 297 299 301 302 304 305 306 307 308 310 311 312 313 313 314 314 314 313 312 311 311 310 309
270 273 276 278 280 282 284 286 287 288 289 290 289 289 288 289 290 291 293 295 297 299 301 302 304 305 306 307 308 309 311 312 313 314 314 314 314 313 312 311 311 310 309 308
272 275 277 278 280 281 284 285 287 288 289 288 288 287 288 289 291 293 295 297 299 301 302 303 305 306 307 308 309 311 312 313 314 314 314 314 313 312 312 311 310 310 309 308
273 275 277 278 279 281 283 285 286 287 286 286 287 287 289 290 292 294 297 298 300 302 303 305 306 307 308 310 311 312 313 314 314 314 314 313 312 312 311 311 310 310 310 309
275 276 277 279 280 281 283 284 284 284 285 285 287 288 290 292 294 296 298 300 302 303 305 306 307 308 310 311 312 313 314 314 314 314 314 313 312 311 311 310 310 310 309 309
274 276 277 278 279 281 282 282 283 283 285 286 288 290 292 294 296 298 300 301 303 304 306 307 308 310 311 312 313 314 314 314 314 314 313 312 312 311 311 310 310 309 309 309
273 274 275 276 278 279 280 281 282 284 286 287 289 291 294 296 298 299 301 302 304 306 307 308 310 311 312 313 313 314 314 314 314 313 312 312 311 311 311 311 311 311 310 310
271 273 274 275 277 278 279 281 283 285 287 289 291 293 295 297 299 301 302 304 305 307 308 309 311 312 312 313 313 314 314 313 313 312 312 311 311 310 310 310 310 311 311 310
270 271 273 275 277 279 281 283 285 287 289 291 293 295 297 299 300 302 304 305 307 308 309 310 312 312 313 313 313 314 313 312 311 311 310 310 310 309 309 309 310 311 310 310
270 272 274 276 278 280 282 285 286 288 290 292 294 296 298 300 302 303 305 306 308 309 310 311 312 312 312 312 312 312 312 311 310 310 309 309 308 308 308 309 310 310 310 310
272 274 276 278 280 282 284 286 288 290 292 294 296 298 300 302 303 305 306 308 308 309 310 311 311 312 312 311 311 311 310 309 309 308 308 308 308 307 308 309 309 310 311 311
274 276 277 280 282 284 286 288 290 292 294 296 298 300 302 303 305 306 307 308 309 310 310 311 311 311 310 310 309 309 307 307 307 307 307 307 307 307 307 308 309 310 311 311
276 278 280 282 284 286 288 291 293 295 297 299 300 302 303 304 306 307 308 308 309 310 310 311 310 310 310 309 308 307 306 305 305 305 305 305 305 306 306 307 308 310 311 312
278 280 283 285 287 289 291 293 295 297 299 300 302 303 304 305 306 307 308 309 309 310 310 310 310 310 309 308 307 306 305 304 304 304 304 304 304 305 306 306 307 309 311 313
282 284 286 288 290 292 294 296 297 299 300 301 302 303 304 305 306 307 308 308 309 309 309 309 309 309 309 308 306 305 304 303 303 303 303 303 303 304 305 305 307 309 311 313
285 287 289 290 292 294 296 297 299 300 301 302 303 304 305 305 306 307 308 308 308 308 308 308 308 308 308 307 306 305 304 303 302 302 302 302 303 304 304 305 307 308 310 312
288 290 291 293 294 296 297 298 299 300 301 302 303 304 305 305 306 307 307 308 307 307 307 307 307 307 306 305 305 305 304 302 301 301 301 301 301 302 304 305 307 308 310 312
290 292 293 295 296 297 298 299 300 301 301 302 303 304 304 305 306 306 307 307 307 307 307 306 306 305 305 304 303 303 303 302 301 300 300 300 301 302 303 305 307 309 311 313
292 293 294 295 296 297 298 299 300 301 302 302 303 303 304 304 305 305 306 306 306 306 306 305 304 304 303 303 302 302 301 300 299 298 298 299 300 301 303 304 307 310 312 314
Height
5750 5751 5752 5752 5753 5753 5752 5752 5750 5751 5750 5748 5743 5741 5739 5736 5733 5730 5727 5724 5720 5717 5713 5710 5706 5702 5697 5692 5687 5681 5675 5669 5662 5655 5648 5639 5631 5622 5613 5603 5592 5581 5570 5559
5742 5743 5743 5744 5746 5745 5744 5743 5742 5741 5740 5738 5735 5732 5729 5726 5723 5720 5717 5713 5710 5706 5703 5699 5694 5690 5685 5680 5674 5668 5662 5655 5647 5640 5631 5622 5613 5603 5593 5583 5572 5560 5548 5536
5734 5735 5734 5736 5739 5737 5736 5735 5733 5731 5731 5728 5726 5723 5720 5717 5713 5710 5706 5703 5699 5695 5691 5687 5683 5678 5673 5667 5661 5654 5647 5640 5632 5623 5614 5605 5595 5584 5574 5563 5551 5539 5526 5513
5724 5726 5726 5730 5729 5728 5726 5726 5724 5722 5720 5717 5715 5712 5709 5706 5703 5699 5696 5692 5688 5684 5680 5675 5670 5665 5659 5653 5647 5640 5632 5624 5615 5606 5596 5586 5576 5565 5554 5542 5530 5517 5504 5491
5715 5715 5716 5719 5720 5718 5716 5716 5715 5712 5709 5707 5704 5701 5698 5695 5691 5688 5684 5680 5676 5672 5668 5663 5657 5652 5646 5639 5632 5624 5616 5607 5598 5588 5578 5568 5557 5545 5533 5521 5509 5496 5483 5471
5705 5705 5705 5709 5709 5707 5706 5705 5705 5701 5699 5696 5693 5690 5687 5683 5680 5676 5672 5669 5664 5660 5655 5650 5644 5638 5632 5625 5617 5609 5600 5591 5580 5570 5559 5548 5537 5524 5512 5499 5487 5476 5464 5453
5696 5694 5695 5697 5696 5695 5696 5695 5692 5690 5687 5685 5682 5679 5675 5671 5668 5664 5661 5656 5652 5647 5642 5636 5630 5624 5617 5609 5601 5592 5583 5573 5563 5551 5540 5528 5517 5504 5491 5479 5468 5457 5447 5438
5686 5685 5687 5686 5685 5684 5683 5681 5680 5677 5675 5673 5670 5666 5663 5660 5656 5652 5648 5644 5639 5634 5629 5622 5616 5609 5602 5594 5585 5576 5566 5556 5545 5533 5521 5508 5496 5484 5471 5460 5450 5440 5431 5423
5677 5678 5676 5675 5673 5672 5671 5670 5667 5665 5663 5660 5657 5654 5651 5648 5644 5640 5636 5631 5626 5621 5615 5608 5601 5593 5586 5577 5568 5559 5549 5538 5526 5515 5502 5489 5477 5465 5454 5443 5433 5425 5417 5409
5665 5666 5665 5663 5662 5661 5659 5657 5655 5653 5651 5648 5645 5642 5639 5636 5632 5628 5623 5618 5613 5607 5601 5594 5586 5578 5569 5560 5551 5541 5531 5520 5508 5496 5484 5471 5459 5447 5437 5427 5418 5410 5402 5395
5654 5654 5653 5652 5650 5649 5647 5645 5643 5641 5638 5636 5633 5630 5627 5623 5619 5615 5610 5605 5599 5593 5586 5579 5571 5562 5552 5543 5533 5523 5512 5501 5489 5477 5466 5455 5444 5432 5422 5413 5402 5395 5388 5381
5643 5643 5641 5641 5639 5637 5635 5634 5631 5629 5626 5624 5621 5618 5614 5611 5606 5602 5596 5591 5585 5578 5571 5563 5554 5545 5535 5525 5515 5504 5494 5482 5471 5460 5448 5438 5429 5421 5410 5400 5391 5382 5375 5368
5631 5630 5629 5628 5627 5625 5623 5621 5619 5617 5614 5612 5609 5605 5602 5598 5593 5588 5582 5576 5569 5562 5555 5546 5537 5528 5518 5508 5497 5485 5474 5463 5452 5442 5431 5422 5413 5405 5399 5392 5381 5373 5365 5358
5618 5617 5617 5616 5614 5613 5611 5609 5607 5605 5602 5599 5596 5593 5589 5585 5580 5574 5568 5561 5554 5546 5538 5529 5520 5511 5500 5490 5479 5468 5456 5445 5435 5425 5416 5407 5398 5391 5384 5377 5372 5365 5357 5349
5606 5606 5605 5604 5602 5601 5599 5597 5595 5593 5590 5587 5584 5580 5576 5571 5566 5560 5553 5545 5538 5531 5522 5512 5503 5494 5482 5472 5461 5451 5440 5429 5419 5410 5401 5393 5385 5378 5372 5365 5359 5353 5347 5340
5594 5594 5593 5592 5591 5589 5588 5586 5584 5581 5578 5575 5571 5567 5562 5557 5551 5545 5537 5530 5522 5514 5505 5495 5486 5476 5465 5454 5444 5434 5424 5414 5404 5396 5388 5381 5374 5367 5360 5354 5348 5342 5336 5330
5583 5582 5581 5580 5579 5578 5576 5574 5572 5569 5566 5562 5558 5553 5548 5543 5537 5530 5523 5515 5506 5497 5487 5477 5468 5458 5447 5436 5427 5418 5409 5400 5391 5383 5376 5369 5362 5356 5350 5344 5338 5333 5327 5320
5572 5571 5571 5570 5568 5567 5565 5563 5560 5557 5553 5549 5544 5539 5534 5528 5522 5515 5508 5499 5490 5481 5470 5460 5450 5440 5430 5420 5410 5402 5394 5386 5378 5371 5364 5358 5351 5345 5339 5334 5328 5323 5317 5312
5561 5561 5560 5559 5557 5555 5553 5551 5547 5544 5540 5535 5531 5525 5519 5513 5506 5499 5491 5482 5473 5465 5456 5444 5434 5424 5414 5404 5395 5387 5380 5373 5366 5359 5353 5347 5341 5335 5330 5324 5319 5313 5308 5303
5551 5550 5549 5548 5546 5544 5541 5538 5534 5530 5526 5521 5516 5510 5504 5497 5489 5482 5474 5465 5454 5445 5437 5427 5417 5408 5398 5390 5381 5374 5367 5360 5354 5348 5342 5336 5331 5326 5320 5315 5310 5305 5299 5294
5541 5539 5538 5536 5534 5531 5528 5525 5521 5517 5512 5506 5500 5494 5488 5481 5473 5464 5456 5449 5439 5428 5419 5409 5400 5391 5382 5374 5367 5360 5354 5348 5342 5336 5331 5326 5321 5316 5311 5306 5301 5297 5292 5287
5530 5528 5526 5524 5522 5518 5515 5511 5507 5502 5497 5491 5484 5477 5471 5464 5456 5448 5438 5429 5421 5411 5402 5393 5384 5375 5367 5360 5353 5347 5341 5335 5330 5325 5320 5316 5311 5307 5303 5298 5293 5289 5284 5280
5518 5516 5514 5512 5509 5505 5501 5497 5492 5487 5481 5475 5467 5460 5453 5445 5437 5429 5423 5413 5403 5394 5385 5377 5369 5361 5353 5346 5340 5334 5329 5324 5319 5314 5310 5306 5302 5298 5294 5290 5286 5281 5277 5273
5506 5504 5501 5498 5495 5492 5487 5482 5477 5471 5465 5458 5450 5441 5433 5427 5420 5410 5402 5395 5386 5377 5369 5362 5354 5347 5339 5333 5328 5323 5317 5313 5308 5304 5301 5297 5293 5289 5286 5282 5278 5274 5270 5266
5493 5491 5487 5484 5480 5476 5472 5467 5461 5454 5448 5441 5433 5424 5415 5407 5400 5393 5385 5377 5369 5361 5354 5347 5340 5333 5327 5321 5316 5311 5307 5302 5298 5295 5292 5288 5285 5282 5278 5274 5271 5267 5263 5259
5480 5477 5473 5469 5464 5460 5455 5450 5444 5437 5430 5424 5416 5407 5398 5389 5381 5374 5367 5360 5352 5345 5338 5332 5326 5321 5315 5310 5305 5301 5297 5293 5289 5286 5283 5280 5277 5274 5271 5267 5264 5260 5256 5253
5465 5461 5457 5453 5447 5442 5437 5431 5425 5418 5411 5404 5398 5390 5381 5373 5365 5358 5350 5344 5337 5330 5324 5318 5313 5308 5303 5299 5295 5291 5287 5284 5281 5278 5275 5272 5269 5266 5263 5260 5257 5254 5250 5246